Regional Weather Roundup
Issued by NWS

Home | Current Version | Previous Version | Text Only | Print | Product List | Glossary Off
Versions: 1 2 3 4 5 6 7 8 9 10 11 12 13 14 15 16 17 18 19 20 21 22 23 24 25 26 27 28 29 30 31 32 33 34 35 36 37 38 39 40 41 42 43 44 45 46 47 48 49 50

000
ASUS45 KTFX 052019
RWRMT
MONTANA HOURLY WEATHER ROUNDUP
NATIONAL WEATHER SERVICE GREAT FALLS MT
119 PM MST THU MAR 5 2015

NOTE: "FAIR" INDICATES FEW OR NO CLOUDS BELOW 12000 FEET WITH NO
SIGNIFICANT WEATHER AND/OR OBSTRUCTIONS TO VISIBILITY.

* THESE STATIONS ARE NOT UNDER NWS QUALITY CONTROL. THEY DO NOT
   REPORT WEATHER SUCH AS PRECIPITATION OR FOG.

MTZ001>007-043-052100-
WEST OF THE DIVIDE
CITY           SKY/WX    TMP DP  RH WIND       PRES   REMARKS
KALISPELL      PTSUNNY   36  18  48 N3        30.29F
MISSOULA       PTCLDY    43  12  28 CALM      30.30F
BUTTE          PTSUNNY   39   7  26 VRB5      30.22F WCI  35
MULLAN PASS    PTSUNNY   34   9  35 VRB6      30.23S WCI  29
* ANACONDA     PTCLDY    37  16  42 N7         N/A   WCI  32
* ESSEX        N/A       38   9  30 NW4        N/A
* EUREKA APT   CLOUDY    34  16  48 CALM      30.31F
* HAMILTON APT SUNNY     52   9  17 NE2       30.26F
* LIBBY APT    CLOUDY    37  16  42 N3        30.30F
* LINCOLN      N/A       40   4  22 SW6G15     N/A   WCI  36
* LOOKOUT PASS N/A       40  11  30 SE7G14     N/A   WCI  35
* POLSON       N/A       40  17  39 S3         N/A
* RONAN APT    CLOUDY    39  18  43 N/A        N/A
* SEELEY LAKE  N/A       44   7  22 N3         N/A
* THOMP F APT  PTSUNNY   31  11  43 SE6G19     N/A   WCI  25
* YAAK HILL    N/A       37  17  44 S1         N/A
$$

MTZ008-052>055-052100-
SOUTHWEST MONTANA
CITY           SKY/WX    TMP DP  RH WIND       PRES   REMARKS
BOZEMAN        PTCLDY    45  10  24 NW3       30.22F
DILLON         PTSUNNY   45  10  24 SW18      30.23F
* W YELLOWSTON SUNNY     31  11  43 S6G16      N/A   WCI  25
* THREE FORKS  PTCLDY    48   7  19 S11G18     N/A
* BOULDER HILL N/A       39   5  24 SW7G12     N/A   WCI  34
* MONIDA PASS  N/A       29  11  47 SE19G25    N/A   WCI  16
* RAYNOLDS PAS N/A       25   8  48 SE19       N/A   WCI  11
* WHITEHALL    N/A       46   7  20 SW15G25    N/A
* WISE RIVER   N/A       40   3  21 W9G14      N/A   WCI  34
$$

MTZ009>010-012-014-046-048-049-054-052100-
EAST SLOPES AND CENTRAL MONTANA
CITY           SKY/WX    TMP DP  RH WIND       PRES   REMARKS
CUT BANK       CLOUDY    45  12  26 W31G39    30.06F
GREAT FALLS    PTCLDY    52   9  17 W22G32    30.09F
HELENA         PTSUNNY   45   3  17 W15G24    30.20F
MALMSTROM AFB  PTCLDY    48   9  20 W21G32    30.11F
* CONRAD       CLOUDY    46  12  25 W18G26     N/A
* DEARBORN     N/A       45   9  23 SW9G20     N/A
* EAST GLACIER N/A       36   9  32 W27G35     N/A   WCI  24
* MONARCH      N/A       38   6  26 W17        N/A   WCI  29
* PENDROY      N/A       41  18  39 NW8G14     N/A
* ROGERS PASS  N/A       33   3  28 SE14G32    N/A   WCI  23
* SWEET GRASS  N/A       43  20  40 NW11G16    N/A
* WHITE SULPH  N/A       44   7  22 W5G16      N/A
$$

MTZ011-013-016-021-035-040-045-047-050-051-052100-
NORTH CENTRAL MONTANA
CITY           SKY/WX    TMP DP  RH WIND       PRES   REMARKS
HAVRE          PTCLDY    50  16  26 SW14      30.06F
LEWISTOWN      PTCLDY    43  19  38 W16       30.11F
* N BAR RANCH  SUNNY     43  12  28 W12G21    30.10S
* CHINOOK      SUNNY     50  14  24 W14       30.06F
* FORT BENTON  SUNNY     54  12  19 SW12G18   30.09F
* CHESTER      N/A       47  15  28 SW6G11     N/A
* DENTON       N/A       46  13  26 W16G21     N/A
* GEYSER       N/A       46  14  27 W22G29     N/A
* JUDITH GAP   N/A       39  13  34 NE6        N/A   WCI  35
* LOMA         N/A       51  12  21 W9G14      N/A
$$

MTZ017>020-022>027-061-062-052100-
NORTHEAST MONTANA
CITY           SKY/WX    TMP DP  RH WIND       PRES   REMARKS
GLASGOW        SUNNY     45  12  26 VRB7      30.05F
GLENDIVE       SUNNY     43  10  26 NW16      30.07F
JORDAN         SUNNY     48  14  25 W15       30.08F
SIDNEY         SUNNY     41  10  28 W15       30.08F
WOLF POINT     SUNNY     46  14  27 W15G22    30.05F
* BEAVER HILL  N/A       39  11  31 W20G29     N/A   WCI  29
* CIRCLE       N/A       42  17  36 NW17       N/A
* LINDSAY DVD  N/A       39  13  34 NW22G30    N/A   WCI  29
* NAVAJO       N/A       36  14  40 W17G24     N/A   WCI  26
* PLENTYWOOD A SUNNY     36  14  40 W17       29.99F WCI  26
* POPLAR APT   SUNNY     45  10  24 W16G23    30.04F
* SACO         N/A       45  15  30 SW8G14     N/A
* SCOBEY APT   SUNNY     39  12  33 W20G25     N/A   WCI  29
$$

MTZ028>042-056>058-052100-
SOUTHCENTRAL AND SOUTHEAST MONTANA
CITY           SKY/WX    TMP DP  RH WIND       PRES   REMARKS
BAKER          SUNNY     43  10  26 NW23G33   30.06S
BILLINGS       PTCLDY    45  14  28 SW16      30.12F
LIVINGSTON     PTCLDY    46  10  23 W24G37    30.15S
MILES CITY     SUNNY     46  16  30 N/A       30.10F
* BIG TIMBER A PTSUNNY   46   7  20 SW26G38   30.12S
* FORSYTH APT  SUNNY     48  10  21 W18G24    30.09F
* LAUREL APT   PTCLDY    43  12  28 S13G18     N/A
* ROUNDUP APT  PTCLDY    50   7  17 W8         N/A
* ALZADA       N/A       41  19  41 W16        N/A
* HYSHAM       N/A       46   8  21 NW14G21    N/A
* LAME DEER    N/A       39  14  36 W12G24     N/A   WCI  32
* REED POINT   N/A       49  14  24 W30G35     N/A
* ROSCOE HILL  N/A       34  10  37 E9         N/A   WCI  27
$$

REGIONAL REPORTS...DAKOTAS
CITY           SKY/WX    TMP DP  RH WIND       PRES   REMARKS
WILLISTON      SUNNY     34  10  37 W8        30.05F WCI  27
DICKINSON      SUNNY     39  10  30 NW15G28   30.00F WCI  31
BEACH          SUNNY     39  10  30 NW20G26   30.05F WCI  29
CROSBY         SUNNY     28  12  51 SW9       30.01F WCI  19
TIOGA          SUNNY     25  12  58 W13       30.04F WCI  13
WATFORD CITY   SUNNY     32  12  43 W14       30.02F WCI  22
BISMARCK       SUNNY     36   7  30 SW16G21   30.07F WCI  26
GRAND FORKS    SUNNY     19   9  65 S21       30.20F WCI   3
FARGO          SUNNY     21   3  45 S23G28    30.26F WCI   5
BUFFALO SD     SUNNY     45  12  26 NW32G45   29.98F
RAPID CITY     CLOUDY    43  14  31 CALM      30.09F
$$

REGIONAL REPORTS...WYOMING/IDAHO/WASHINGTON
CITY           SKY/WX    TMP DP  RH WIND       PRES   REMARKS
GILLETTE       PTCLDY    39  16  39 NW16      30.12F WCI  30
SHERIDAN       SUNNY     43  16  34 W3        30.14F
CODY           PTCLDY    45  10  24 W14G26    30.13F
YELLOWSTONE LA PTCLDY    30   7  38 NW5       30.28F WCI  25
SALMON         PTCLDY    39  12  33 W3        30.32F
MULLAN PASS    PTSUNNY   34   9  35 VRB6      30.23S WCI  29
SAND POINT     PTCLDY    41  21  45 S5        30.33F
SPOKANE        PTSUNNY   46  19  34 CALM      30.31S
$$

REGIONAL REPORTS...ALBERTA
CITY           SKY/WX    TMP DP  RH WIND       PRES   REMARKS
CALGARY        CLOUDY    48  16  28 W18G25    30.00S
LETHBRIDGE     CLOUDY    45  14  28 W29G37    30.04S
MEDICINE HAT   CLOUDY    43  25  49 S14       30.05S
EDMONTON       PTSUNNY   39  23  53 W9        29.98S WCI  33
WATERTON GATE  N/A       37  16  42 SW29G39    N/A   WCI  25
CARDSTON       N/A       43  21  42 W15G24     N/A
MILK RIVER     N/A       41  27  58 W13        N/A
$$

REGIONAL REPORTS...SASKATCHEWAN
CITY           SKY/WX    TMP DP  RH WIND       PRES   REMARKS
SWIFT CURRENT  PTSUNNY   37  21  52 W21G28    29.95F WCI  26
MOOSE JAW      SUNNY     28  19  69 W20       29.96F WCI  15
REGINA         SUNNY     18  12  77 S5        29.95F WCI  11
VAL MARIE      N/A       46  14  27 W17G23     N/A
ASSINIBOIA     N/A       34  18  52 W18        N/A   WCI  23
CORONACH       N/A       39  18  43 W17G23     N/A   WCI  30

$$



USA.gov is the U.S. government's official web portal to all federal, state and local government web resources and services.